Regional Weather Roundup
Issued by NWS

Home | Current Version | Previous Version | Graphics & Text | Print | Product List | Glossary On
Versions: 1 2 3 4 5 6 7 8 9 10 11 12 13 14 15 16 17 18 19 20 21 22 23 24 25 26 27 28 29 30 31 32 33 34 35 36 37 38 39 40 41 42 43 44 45 46 47 48 49 50
000
ASUS43 KOAX 050602
RWRNE

WEATHER ROUNDUP FOR NEBRASKA
NATIONAL WEATHER SERVICE OMAHA NE
100 AM CDT SAT SEP 05 2015

NOTES: SATELLITE DATA IS BEING USED TO AUGMENT CLOUD COVER ABOVE
       12000 FEET.
       "FAIR" INDICATES FEW OR NO CLOUDS BELOW 12,000 FEET WITH NO
       SIGNIFICANT WEATHER AND/OR OBSTRUCTIONS TO VISIBILITY.

  * THESE STATIONS DO NOT REPORT WEATHER SUCH AS RAIN...SNOW OR FOG.

NEZ001>004-019>022-054>056-050700-
NEBRASKA PANHANDLE

CITY           SKY/WX    TMP DP  RH WIND       PRES   REMARKS
SCOTTSBLUFF    CLOUDY    67  55  65 E3        29.87F
6HR MIN TEMP:  67; 6HR MAX TEMP:  82;

ALLIANCE       CLOUDY    72  52  49 SE9       29.86F
6HR MIN TEMP:  69; 6HR MAX TEMP:  90; 6HR PCP: TRACE;

CHADRON        CLOUDY    75  48  38 SE3       29.83S
6HR MIN TEMP:  69; 6HR MAX TEMP:  89;

KIMBALL        CLOUDY    72  46  38 SW5       29.92S
SIDNEY         LGT RAIN  72  55  55 S17       29.92R
6HR MIN TEMP:  70; 6HR MAX TEMP:  91; 6HR PCP: TRACE;

$$

NEZ057>060-069>072-079>082-050700-
SOUTHWEST NEBRASKA

CITY           SKY/WX    TMP DP  RH WIND       PRES   REMARKS
NORTH PLATTE   PTCLDY    69  63  81 E8        29.85S
6HR MIN TEMP:  68; 6HR MAX TEMP:  87;

IMPERIAL       CLOUDY    80  55  42 SE13      29.84F
6HR MIN TEMP:  73; 6HR MAX TEMP:  91;

LEXINGTON      MOCLDY    78  63  59 SE13      29.86S
MC COOK        PTCLDY    83  58  42 S15G22    29.84F
6HR MIN TEMP:  82; 6HR MAX TEMP:  95;

OGALLALA       MOCLDY    72  58  61 E5        29.85F
$$

NEZ005>010-023>029-035>040-094-050700-
NORTH CENTRAL NEBRASKA

CITY           SKY/WX    TMP DP  RH WIND       PRES   REMARKS
VALENTINE      PTCLDY    74  61  63 S6        29.82S
6HR MIN TEMP:  73; 6HR MAX TEMP:  90;

BROKEN BOW     PTCLDY    76  63  64 SE3       29.86S
6HR MIN TEMP:  70; 6HR MAX TEMP:  90;

O`NEILL        PTCLDY    75  68  79 SE8       29.84S
ORD            PTCLDY    77  64  64 S7        29.84S
6HR MIN TEMP:  74; 6HR MAX TEMP:  89;

THEDFORD       PTCLDY    67  62  84 CALM      29.86S
$$

NEZ041-046>049-061>064-073>077-083>087-050700-
SOUTH CENTRAL NEBRASKA

CITY           SKY/WX    TMP DP  RH WIND       PRES   REMARKS
GRAND ISLAND   PTCLDY    76  65  68 S14       29.88S
6HR MIN TEMP:  76; 6HR MAX TEMP:  89;

AURORA         PTCLDY    77  66  69 S13       29.89S
HASTINGS       PTCLDY    77  64  64 S9        29.89S
6HR MIN TEMP:  77; 6HR MAX TEMP:  92;

HEBRON         CLEAR     78  65  63 S13       29.91R
HOLDREGE       PTCLDY    78  60  55 S10       29.88S
KEARNEY *      PTCLDY    73  61  64 S9        29.88R
YORK           CLEAR     75  66  73 S12       29.90S
$$

NEZ011>018-030>034-042>045-050700-
NORTHEAST NEBRASKA

CITY           SKY/WX    TMP DP  RH WIND       PRES   REMARKS
NORFOLK        MOCLDY    76  66  71 SE13      29.86S
6HR MIN TEMP:  76; 6HR MAX TEMP:  86;

ALBION         PTCLDY    76  65  67 S10       29.87S
BLAIR          FAIR      77  66  68 S14       29.92S
COLUMBUS *     PTCLDY    75  64  69 S7        29.88S
FREMONT        PTCLDY    78  67  67 SE13      29.90S
TEKAMAH        PTCLDY    74  69  85 SE7       29.90S
6HR MIN TEMP:  74; 6HR MAX TEMP:  83;

$$

NEZ050>053-065>068-078-088>093-050700-
SOUTHEAST NEBRASKA

CITY           SKY/WX    TMP DP  RH WIND       PRES   REMARKS
LINCOLN        CLEAR     78  68  71 S13       29.91R
6HR MIN TEMP:  78; 6HR MAX TEMP:  88;

OMAHA EPPLEY   MOCLDY    78  68  71 S15       29.92S
6HR MIN TEMP:  78; 6HR MAX TEMP:  86;

BEATRICE       CLEAR     77  68  74 S10       29.92S
FALLS CITY     CLEAR     75  69  81 S7        29.94S
6HR MIN TEMP:  74; 6HR MAX TEMP:  88;

NEBRASKA CITY  CLEAR     74  65  73 S12       29.94S
PLATTSMOUTH    CLEAR     76  66  71 S9        29.93S
$$

NEZ044-045-051>053-067-050700-
OMAHA AREA

CITY           SKY/WX    TMP DP  RH WIND       PRES   REMARKS
EPPLEY FIELD   MOCLDY    78  68  71 S15       29.92S
6HR MIN TEMP:  78; 6HR MAX TEMP:  86;

BLAIR          CLEAR     77  66  68 S14       29.92S
FREMONT        PTCLDY    78  67  67 SE13      29.90S
MILLARD        CLEAR     78  69  72 SE10      29.91S
OFFUTT AFB     CLEAR     76  68  76 SE12      29.92R
PLATTSMOUTH    CLEAR     76  66  71 S9        29.93S
WAHOO          FAIR      75  69  79 SE9       29.91S
$$


USA.gov is the U.S. government's official web portal to all federal, state and local government web resources and services.